Location: Carson
(33.8314°N, 118.2820°W)
Time: 22:19:53
(UTC+00:00)

BREEZE-M DEB (TANK) - Pass Details

Date: 23 November 2020
Orbit: 410 x 14910 km, 45.9° (Epoch: 20 January)

Event Time Altitude Azimuth Distance (km) Brightness Sun altitude
Exits shadow 13:02:54 23° 1° (N) 939 3.9 -18.6°
Drops below altitude 10° 13:04:46 10° 37° (NE) 1,603 5.5 -18.2°
Sets 13:07:29 0° 52° (NE) 2,902 7.1 -17.7°
